[[{"header":{"parameterUnit":"m.s-1","parameterCategory":1,"la1":30.2991,"la2":30.254,"lo1":-89.0895,"lo2":-89.0444,"dy":0.0017,"dx":0.0017,"nx":28,"ny":28,"refTime":"2025-03-12T03:00:00:Z","depth":0,"parameterNumber":2,"parameterNumberName":"U-component_of_WINDS"},"data":[0,0,0,0,0,0,0,0,0,0,0,0,0,0,0,0,0,0,0,0,0,0,0,0,0,0,0,0,0,0,0,0,0,0,0,0,0,0,0,0,0,0,0,0,0,0,0,0,0,0,0,0,0,0,0,0,0,0,0.9569,0.9571,0,0.973,0.9732,0.9733,0.9791,0.979,0.979,0.9789,0.9954,0.9959,0.9964,0,0,0,0,0,0,0,0,0,0,0,0,0,0.9311,0.9316,0.9569,0.9571,0.9573,0.9729,0.9732,0.9734,0.9791,0.979,0.9789,0.9789,0.9953,0.9959,0.9965,0,0,0,0,0,0,0,0,0,0,0,0,0,0.9443,0.9317,0.9568,0.962,0.9626,0.9729,0.9732,0.9734,0.9791,0.979,0.9789,0.9788,0.9951,0.9958,0.9965,1.0029,0,0,0.9988,0.9991,0,0,0,0,0,0,0,0,0.9435,0.9452,0.961,0.9617,0.9624,0.9739,0.9702,0.9833,0.9791,0.9728,0.9789,0.9788,0.9884,0.9897,0.9929,1.0037,1.0044,0.9989,0.9993,0.9996,0.9999,0,0,0,0,0,0,0,0.9426,0.9446,0.9632,0.9613,0.9621,0.9635,0.9653,0.9727,0.9809,0.9734,0.9738,0.9757,0.9887,0.9921,0.9933,1.0046,0.9989,0.9995,1.0,1.0003,1.0215,1.0216,0,0,0,0,0,0,0.9408,0.9438,0.9627,0.9637,0.9525,0.9641,0.9661,0.9703,0.9808,0.9824,0.9757,0.9759,0.9909,0.9924,0.9939,1.0021,0.9996,1.0003,1.0008,1.0214,1.0215,1.0217,0,0,0,0,0,0,0.9402,0.9425,0.9621,0.9539,0.9565,0.9646,0.9693,0.9707,0.9741,0.9826,0.9841,0.9777,0.9909,0.9929,1.0006,1.0027,1.0007,1.0013,1.0213,1.0214,1.0216,1.0184,0,0,0,0,0,0,0.9395,0.9422,0.9447,0.9539,0.9569,0.9685,0.9695,0.9711,0.9754,0.9757,0.9849,0.9863,0.991,0.9995,1.0014,1.0037,1.0019,1.0211,1.0213,1.0215,1.0184,1.0185,1.0186,0,0,0,0,0,0.9385,0.9431,0.9448,0.947,0.9601,0.9686,0.9703,0.9756,0.9755,0.9781,0.9835,0.986,1.0022,1.0002,1.0024,1.005,1.021,1.0213,1.0215,1.0184,1.0185,1.0186,0,0,0,0,0,0,0.934,0.9444,0.9464,0.9541,0.9604,0.9695,0.9729,0.9756,0.9821,0.9821,0.9884,0.9904,0.9977,1.0022,0.9998,1.0117,1.0117,1.0125,1.0086,1.0088,1.0089,1.0077,1.0025,0,0,0,0,0,0.9338,0.9398,0.9487,0.9546,0.9577,0.9647,0.9686,0.9722,0.979,0.9817,0.9877,0.9943,1.0009,1.0051,1.0116,1.019,1.0212,1.0219,1.022,1.022,1.0226,1.027,1.0274,1.0225,1.0225,1.0225,0,0,0.9337,0.9401,0.9435,0.9538,0.9592,0.9653,0.967,0.9733,0.9779,0.9827,0.9904,0.995,1.0028,1.0104,1.0141,1.0143,1.0244,1.0224,1.0223,1.0229,1.0273,1.0278,1.0282,1.0227,1.0227,1.0227,0,0,0.9365,0.9419,0.9475,0.9528,0.9609,0.9656,0.9669,0.9757,0.979,0.9868,0.9905,0.9961,1.0073,1.0127,1.0168,1.0217,1.0243,1.0237,1.0242,1.0284,1.0287,1.0291,1.031,1.0315,1.0242,1.0242,1.0242,0,0.9352,0.9445,0.9501,0.9563,0.9607,0.9653,0.9711,0.976,0.9857,0.9887,0.9888,1.003,1.0085,1.0175,1.0187,1.0219,1.0237,1.0227,1.0282,1.0287,1.0291,1.0309,1.0316,1.0241,1.0241,1.0241,1.0241,0,0.9427,0.9491,0.9526,0.962,0.9668,0.9727,0.9792,0.9835,0.9866,0.9913,0.9992,1.006,1.014,1.0164,1.0195,1.0259,1.0258,1.027,1.0271,1.0294,1.0312,1.0319,1.0239,1.0239,1.024,1.024,0,0,0.943,0.9554,0.9566,0.9609,0.9702,0.9753,0.9814,0.9892,0.9928,0.9994,1.0048,1.0141,1.0153,1.02,1.0238,1.0274,1.031,1.0282,1.0285,1.0286,1.0386,1.0377,1.0384,1.0327,1.0329,1.033,1.038,0,0.9471,0.9583,0.9635,0.9724,0.9785,0.9829,0.9883,0.9946,0.9991,1.0049,1.01,1.0165,1.0175,1.0204,1.0243,1.0297,1.0331,1.0294,1.0378,1.0381,1.0358,1.0394,1.0384,1.0428,1.0387,1.0388,1.0389,0,0.9534,0.96,0.9695,0.9781,0.9808,0.9856,0.9932,0.9987,1.0059,1.009,1.0143,1.0179,1.0246,1.0242,1.0336,1.0309,1.0347,1.0379,1.0382,1.0393,1.0387,1.0406,1.0443,1.045,1.0401,1.04,1.0399,0,0.9528,0.964,0.9712,0.9748,0.985,0.9882,0.9926,0.9998,1.0042,1.0108,1.0138,1.0211,1.0252,1.0308,1.0363,1.0355,1.0452,1.0452,1.048,1.0478,1.0499,1.0497,1.0543,1.0521,1.0521,1.0521,1.0521,0,0.9568,0.9625,0.9711,0.9755,0.982,0.988,0.9942,0.999,1.0053,1.0108,1.015,1.0201,1.027,1.0329,1.0373,1.0444,1.0462,1.0489,1.05,1.0486,1.0483,1.0512,1.0511,1.0523,1.0522,1.0522,1.0521,0,0.9573,0.9633,0.9714,0.9804,0.9828,0.9872,0.9949,0.9994,1.0042,1.011,1.013,1.0205,1.0277,1.0337,1.0432,1.0461,1.0536,1.0548,1.0511,1.0517,1.0541,1.0539,1.0609,1.0622,1.059,1.059,1.059,0,0.9595,0.964,0.9735,0.9774,0.9818,0.9881,0.9926,0.9986,1.0032,1.0118,1.0153,1.0228,1.0291,1.0404,1.0467,1.054,1.0555,1.0575,1.0566,1.0551,1.0557,1.0554,1.0559,1.0575,1.0576,1.0576,1.0576,0,0.9628,0.9656,0.9719,0.9794,0.9847,0.9908,0.9971,1.0001,1.0072,1.0121,1.0196,1.0245,1.0342,1.0416,1.0496,1.0541,1.0571,1.0578,1.0588,1.0574,1.0551,1.0565,1.0514,1.0576,1.0576,1.0576,1.0576,1.0576,0.9643,0.9685,0.9759,0.9829,0.9882,0.994,0.9987,1.004,1.0103,1.0187,1.0218,1.0295,1.0367,1.0477,1.0523,1.0583,1.0587,1.0602,1.0606,1.0609,1.0607,1.0541,1.0598,1.0598,1.0598,1.0598,1.0598,0,0.9679,0.9729,0.9792,0.9879,0.9934,0.9957,1.0027,1.0072,1.0138,1.0203,1.0265,1.035,1.0423,1.0491,1.0568,1.0603,1.0619,1.0621,1.062,1.063,1.0599,1.0583,1.0607,1.0607,1.0607,1.0607,1.0607,1.0607,0.9704,0.9778,0.9814,0.9914,0.9964,1.0039,1.0078,1.0131,1.0183,1.0277,1.0338,1.0382,1.0449,1.053,1.0598,1.0616,1.0642,1.0641,1.0663,1.0633,1.0632,1.063,1.0615,1.0646,1.0646,1.069,1.069,1.069]},{"header":{"parameterUnit":"m.s-1","parameterCategory":1,"la1":30.2991,"la2":30.254,"lo1":-89.0895,"lo2":-89.0444,"dy":0.0017,"dx":0.0017,"nx":28,"ny":28,"refTime":"2025-03-12T03:00:00:Z","depth":0,"parameterNumber":3,"parameterNumberName":"V-component_of_WINDS"},"data":[0,0,0,0,0,0,0,0,0,0,0,0,0,0,0,0,0,0,0,0,0,0,0,0,0,0,0,0,0,0,0,0,0,0,0,0,0,0,0,0,0,0,0,0,0,0,0,0,0,0,0,0,0,0,0,0,0,0,4.1942,4.1942,0,4.1905,4.1905,4.1904,4.1812,4.181,4.1808,4.1806,4.1772,4.1773,4.1774,0,0,0,0,0,0,0,0,0,0,0,0,0,4.1937,4.1938,4.1942,4.1942,4.1941,4.1905,4.1905,4.1904,4.1812,4.181,4.1808,4.1805,4.1771,4.1773,4.1774,0,0,0,0,0,0,0,0,0,0,0,0,0,4.1924,4.1938,4.1942,4.1891,4.1886,4.1905,4.1905,4.1904,4.1813,4.181,4.1807,4.1804,4.1771,4.1772,4.1774,4.1841,0,0,4.1778,4.1779,0,0,0,0,0,0,0,0,4.1925,4.1924,4.1899,4.1895,4.1889,4.186,4.189,4.1883,4.1814,4.1841,4.1806,4.1803,4.1804,4.1802,4.1802,4.1839,4.1838,4.1778,4.1779,4.1779,4.178,0,0,0,0,0,0,0,4.1926,4.1925,4.1928,4.1899,4.1893,4.1871,4.1866,4.1888,4.1839,4.1838,4.1831,4.1828,4.18,4.1801,4.18,4.1837,4.1778,4.1779,4.178,4.1781,4.1929,4.1932,0,0,0,0,0,0,4.1933,4.1926,4.1929,4.1926,4.19,4.1874,4.1868,4.1872,4.1839,4.1831,4.1831,4.1824,4.18,4.1799,4.1799,4.1876,4.1779,4.1781,4.1781,4.1926,4.193,4.1933,0,0,0,0,0,0,4.1934,4.1934,4.193,4.1925,4.1922,4.1877,4.1883,4.1873,4.1873,4.1833,4.1824,4.184,4.1798,4.1797,4.1831,4.1873,4.1781,4.1783,4.1922,4.1927,4.1931,4.203,0,0,0,0,0,0,4.1934,4.1935,4.1959,4.1926,4.1923,4.1962,4.1885,4.1875,4.1876,4.1866,4.1839,4.1832,4.1795,4.183,4.1832,4.1874,4.1784,4.1918,4.1924,4.193,4.2023,4.2038,4.205,0,0,0,0,0,4.1934,4.1989,4.1961,4.1962,4.1952,4.1965,4.1964,4.1919,4.1879,4.1904,4.1878,4.1833,4.1868,4.1834,4.1836,4.1879,4.1915,4.1923,4.1929,4.2017,4.2035,4.205,0,0,0,0,0,0,4.203,4.1984,4.1952,4.1998,4.1986,4.1949,4.1979,4.194,4.194,4.1931,4.1877,4.1872,4.1914,4.1899,4.1862,4.1942,4.1884,4.1892,4.195,4.1967,4.198,4.1983,4.1785,0,0,0,0,0,4.2056,4.2069,4.2029,4.2073,4.2069,4.2025,4.2029,4.1996,4.1982,4.1977,4.1953,4.1943,4.1951,4.1958,4.1964,4.202,4.2014,4.2051,4.2064,4.2076,4.2084,4.2114,4.213,4.1956,4.1956,4.1956,0,0,4.2111,4.2087,4.2099,4.2092,4.2079,4.2095,4.2022,4.2041,4.2053,4.198,4.2011,4.1994,4.1978,4.2024,4.2043,4.2013,4.213,4.2085,4.2094,4.2096,4.2123,4.2139,4.2154,4.1961,4.196,4.1959,0,0,4.2219,4.2202,4.2237,4.2226,4.2206,4.2177,4.2186,4.2155,4.2141,4.2171,4.2116,4.213,4.2146,4.2137,4.2135,4.2241,4.22,4.2244,4.2316,4.2346,4.236,4.2372,4.2411,4.2425,4.2252,4.2252,4.2252,0,4.229,4.2311,4.2261,4.2285,4.2284,4.2217,4.2253,4.2245,4.2229,4.2231,4.2197,4.2216,4.22,4.2244,4.227,4.227,4.2279,4.2248,4.2362,4.2373,4.2383,4.242,4.2435,4.2258,4.2257,4.2257,4.2256,0,4.24,4.2415,4.2446,4.2432,4.2434,4.2464,4.242,4.2429,4.2396,4.2371,4.2403,4.2382,4.2383,4.239,4.2358,4.243,4.2412,4.2371,4.2312,4.2407,4.244,4.2453,4.2266,4.2264,4.2262,4.2261,0,0,4.2568,4.2525,4.2537,4.253,4.2504,4.2516,4.2544,4.2543,4.2553,4.2544,4.2567,4.2582,4.2544,4.2541,4.2508,4.2534,4.2621,4.249,4.2488,4.2516,4.27,4.2732,4.2749,4.2593,4.2595,4.2597,4.2702,0,4.267,4.2713,4.267,4.2723,4.2737,4.2674,4.2698,4.2686,4.2663,4.2673,4.2649,4.2661,4.2609,4.2607,4.263,4.2605,4.2657,4.2597,4.2615,4.2616,4.2622,4.2766,4.2799,4.2899,4.2714,4.2716,4.2718,0,4.2796,4.2792,4.2847,4.2818,4.2822,4.2845,4.2841,4.2851,4.2836,4.2818,4.2816,4.2775,4.2801,4.2743,4.278,4.274,4.2745,4.2734,4.2737,4.2737,4.2674,4.2772,4.2929,4.2945,4.2738,4.2736,4.2735,0,4.2914,4.2923,4.2957,4.2953,4.292,4.2937,4.2925,4.2906,4.2909,4.2907,4.2909,4.291,4.2911,4.2913,4.2875,4.2836,4.2917,4.2855,4.2904,4.2905,4.2924,4.2924,4.3086,4.2926,4.2926,4.2925,4.2925,0,4.3034,4.307,4.301,4.3031,4.307,4.3019,4.306,4.3041,4.3025,4.3043,4.2988,4.3006,4.2953,4.2966,4.2936,4.2971,4.2972,4.2959,4.2951,4.2964,4.2966,4.2967,4.296,4.2929,4.2928,4.2928,4.2927,0,4.3173,4.3134,4.3167,4.3133,4.3125,4.3156,4.3127,4.3146,4.3119,4.3142,4.3144,4.3104,4.3116,4.3077,4.3083,4.3062,4.3115,4.3095,4.312,4.3114,4.3165,4.3162,4.3335,4.3356,4.3182,4.3183,4.3185,0,4.3253,4.3279,4.3248,4.3255,4.3245,4.3257,4.3259,4.3211,4.3216,4.3202,4.3223,4.323,4.3233,4.3255,4.3227,4.3232,4.3212,4.3272,4.3212,4.3226,4.3214,4.3214,4.3217,4.3285,4.3287,4.3289,4.3291,0,4.3399,4.3378,4.3383,4.3382,4.3386,4.3383,4.3377,4.3386,4.3334,4.3343,4.3354,4.3357,4.3362,4.3371,4.3369,4.3357,4.3317,4.3309,4.3321,4.3336,4.335,4.3344,4.3155,4.3306,4.3304,4.3303,4.3302,4.3302,4.3511,4.3532,4.3513,4.3521,4.3511,4.3506,4.3522,4.3497,4.3505,4.3505,4.3477,4.3494,4.3479,4.3473,4.3465,4.3479,4.3451,4.3468,4.3472,4.3477,4.3487,4.3347,4.3478,4.3478,4.3477,4.3477,4.3477,0,4.3655,4.364,4.3648,4.364,4.3646,4.3605,4.3596,4.3605,4.362,4.3609,4.3613,4.3627,4.3635,4.3607,4.3611,4.3628,4.3609,4.3631,4.363,4.3628,4.3511,4.35,4.3646,4.3646,4.3646,4.3646,4.3646,4.3646,4.3731,4.3764,4.3741,4.3769,4.3754,4.3769,4.3768,4.3764,4.3755,4.3772,4.3778,4.3759,4.3742,4.3745,4.3751,4.3742,4.3747,4.3776,4.3761,4.3652,4.3636,4.362,4.3611,4.3777,4.3777,4.3877,4.3878,4.3879]}]]